This is the latest recevied weather packets stored in our database for station/object DL1VED. If no packets are shown the sender has not sent any weather packets the latest 10 day(s).
| Time | Temp. | Humidity | Pressure | Rain* | Wind** | Luminosity | Snow |
|---|---|---|---|---|---|---|---|
| 1778039947 | 12.22° C | 88% | 1004.4 hPa | 0 mm | - | - | - |
| 1778039047 | 12.22° C | 87% | 1004.6 hPa | 0 mm | - | - | - |
| 1778038147 | 12.22° C | 88% | 1004.7 hPa | 0 mm | - | - | - |
| 1778037247 | 12.22° C | 88% | 1004.7 hPa | 0 mm | - | - | - |
| 1778036347 | 12.22° C | 88% | 1004.7 hPa | 0 mm | - | - | - |
| 1778035447 | 12.22° C | 88% | 1004.7 hPa | 0 mm | - | - | - |
| 1778034547 | 12.22° C | 88% | 1004.7 hPa | 0 mm | - | - | - |
| 1778033647 | 12.22° C | 88% | 1004.6 hPa | 0 mm | - | - | - |
| 1778032747 | 12.22° C | 87% | 1004.8 hPa | 0 mm | - | - | - |
| 1778031847 | 12.78° C | 88% | 1004.9 hPa | 0.76 mm | - | - | - |
| 1778030947 | 12.78° C | 88% | 1004.9 hPa | 1.27 mm | - | - | - |
| 1778030047 | 12.78° C | 89% | 1005.1 hPa | 2.54 mm | - | - | - |
| 1778029147 | 12.78° C | 88% | 1005.1 hPa | 2.54 mm | - | - | - |
| 1778028247 | 13.33° C | 87% | 1005.2 hPa | 1.78 mm | - | - | - |
| 1778027347 | 13.33° C | 87% | 1005.3 hPa | 1.27 mm | - | - | - |
| 1778026447 | 13.33° C | 87% | 1005.4 hPa | 0 mm | - | - | - |
| 1778025547 | 13.33° C | 87% | 1005.6 hPa | 0 mm | - | - | - |
| 1778024647 | 13.33° C | 87% | 1005.7 hPa | 0 mm | - | - | - |
| 1778023747 | 13.33° C | 87% | 1005.9 hPa | 0 mm | - | - | - |
| 1778022847 | 13.33° C | 86% | 1005.9 hPa | 0 mm | - | - | - |
| 1778021947 | 13.33° C | 86% | 1006 hPa | 0.25 mm | - | - | - |
| 1778021047 | 13.33° C | 87% | 1006 hPa | 0.25 mm | - | - | - |
| 1778020147 | 13.33° C | 87% | 1006.1 hPa | 0.51 mm | - | - | - |
| 1778019247 | 13.33° C | 87% | 1006.2 hPa | 2.03 mm | - | - | - |
| 1778018347 | 13.33° C | 87% | 1006.2 hPa | 2.29 mm | - | - | - |
* Rain latest hour (hover to see other rain measurements)
** Current wind speed in m/s (hover to see current wind gust speed)